Year,Month,Day,Hour,Minute,Value (Times are PST for temperature in C)
2013,10,17,00,00,7.10
2013,10,17,00,01,7.10
2013,10,17,00,02,7.20
2013,10,17,00,03,7.20
2013,10,17,00,04,7.20
2013,10,17,00,05,7.20
2013,10,17,00,06,7.20
2013,10,17,00,07,7.20
2013,10,17,00,08,7.20
2013,10,17,00,09,7.20
2013,10,17,00,10,7.20
2013,10,17,00,11,7.20
2013,10,17,00,12,7.20
2013,10,17,00,13,7.20
2013,10,17,00,14,7.20
2013,10,17,00,15,7.20
2013,10,17,00,16,7.20
2013,10,17,00,17,7.20
2013,10,17,00,18,7.10
2013,10,17,00,19,7.10
2013,10,17,00,20,7.10
2013,10,17,00,21,7.10
2013,10,17,00,22,7.00
2013,10,17,00,23,7.00
2013,10,17,00,24,7.00
2013,10,17,00,25,7.00
2013,10,17,00,26,7.00
2013,10,17,00,27,6.90
2013,10,17,00,28,6.90
2013,10,17,00,29,6.90
2013,10,17,00,30,6.90
2013,10,17,00,31,6.90
2013,10,17,00,32,6.90
2013,10,17,00,33,6.90
2013,10,17,00,34,6.90
2013,10,17,00,35,6.90
2013,10,17,00,36,6.90
2013,10,17,00,37,6.90
2013,10,17,00,38,6.90
2013,10,17,00,39,6.90
2013,10,17,00,40,6.80
2013,10,17,00,41,6.80
2013,10,17,00,42,6.80
2013,10,17,00,43,6.80
2013,10,17,00,44,6.80
2013,10,17,00,45,6.80
2013,10,17,00,46,6.80
2013,10,17,00,47,6.90
2013,10,17,00,48,6.90
2013,10,17,00,49,6.90
2013,10,17,00,50,6.90
2013,10,17,00,51,6.90
2013,10,17,00,52,6.90
2013,10,17,00,53,6.90
2013,10,17,00,54,6.80
2013,10,17,00,55,6.80
2013,10,17,00,56,6.80
2013,10,17,00,57,6.80
2013,10,17,00,58,6.80
2013,10,17,00,59,6.80
2013,10,17,01,00,6.70
2013,10,17,01,01,6.70
2013,10,17,01,02,6.70
2013,10,17,01,03,6.60
2013,10,17,01,04,6.60
2013,10,17,01,05,6.60
2013,10,17,01,06,6.60
2013,10,17,01,07,6.60
2013,10,17,01,08,6.60
2013,10,17,01,09,6.60
2013,10,17,01,10,6.60
2013,10,17,01,11,6.60
2013,10,17,01,12,6.60
2013,10,17,01,13,6.60
2013,10,17,01,14,6.70
2013,10,17,01,15,6.80
2013,10,17,01,16,6.80
2013,10,17,01,17,6.90
2013,10,17,01,18,7.00
2013,10,17,01,19,7.00
2013,10,17,01,20,7.00
2013,10,17,01,21,6.90
2013,10,17,01,22,7.00
2013,10,17,01,23,7.00
2013,10,17,01,24,6.90
2013,10,17,01,25,6.90
2013,10,17,01,26,6.90
2013,10,17,01,27,7.00
2013,10,17,01,28,7.10
2013,10,17,01,29,7.20
2013,10,17,01,30,7.30
2013,10,17,01,31,7.30
2013,10,17,01,32,7.30
2013,10,17,01,33,7.30
2013,10,17,01,34,7.30
2013,10,17,01,35,7.30
2013,10,17,01,36,7.30
2013,10,17,01,37,7.30
2013,10,17,01,38,7.30
2013,10,17,01,39,7.30
2013,10,17,01,40,7.40
2013,10,17,01,41,7.50
2013,10,17,01,42,7.60
2013,10,17,01,43,7.70
2013,10,17,01,44,7.70
2013,10,17,01,45,7.70
2013,10,17,01,46,7.70
2013,10,17,01,47,7.60
2013,10,17,01,48,7.50
2013,10,17,01,49,7.40
2013,10,17,01,50,7.20
2013,10,17,01,51,7.10
2013,10,17,01,52,7.00
2013,10,17,01,53,7.00
2013,10,17,01,54,6.90
2013,10,17,01,55,6.90
2013,10,17,01,56,6.90
2013,10,17,01,57,6.90
2013,10,17,01,58,6.90
2013,10,17,01,59,6.90
2013,10,17,02,00,6.90
2013,10,17,02,01,6.90
2013,10,17,02,02,6.90
2013,10,17,02,03,6.90
2013,10,17,02,04,6.90
2013,10,17,02,05,6.90
2013,10,17,02,06,6.90
2013,10,17,02,07,6.90
2013,10,17,02,08,6.90
2013,10,17,02,09,6.90
2013,10,17,02,10,6.90
2013,10,17,02,11,6.80
2013,10,17,02,12,6.80
2013,10,17,02,13,6.80
2013,10,17,02,14,6.80
2013,10,17,02,15,6.80
2013,10,17,02,16,6.80
2013,10,17,02,17,6.70
2013,10,17,02,18,6.70
2013,10,17,02,19,6.70
2013,10,17,02,20,6.70
2013,10,17,02,21,6.60
2013,10,17,02,22,6.60
2013,10,17,02,23,6.60
2013,10,17,02,24,6.60
2013,10,17,02,25,6.60
2013,10,17,02,26,6.60
2013,10,17,02,27,6.60
2013,10,17,02,28,6.60
2013,10,17,02,29,6.60
2013,10,17,02,30,6.50
2013,10,17,02,31,6.40
2013,10,17,02,32,6.40
2013,10,17,02,33,6.40
2013,10,17,02,34,6.50
2013,10,17,02,35,6.50
2013,10,17,02,36,6.40
2013,10,17,02,37,6.40
2013,10,17,02,38,6.40
2013,10,17,02,39,6.40
2013,10,17,02,40,6.40
2013,10,17,02,41,6.40
2013,10,17,02,42,6.40
2013,10,17,02,43,6.40
2013,10,17,02,44,6.40
2013,10,17,02,45,6.40
2013,10,17,02,46,6.40
2013,10,17,02,47,6.40
2013,10,17,02,48,6.40
2013,10,17,02,49,6.40
2013,10,17,02,50,6.50
2013,10,17,02,51,6.70
2013,10,17,02,52,6.90
2013,10,17,02,53,7.10
2013,10,17,02,54,7.30
2013,10,17,02,55,7.50
2013,10,17,02,56,7.70
2013,10,17,02,57,7.80
2013,10,17,02,58,7.90
2013,10,17,02,59,7.90
2013,10,17,03,00,7.90
2013,10,17,03,01,7.90
2013,10,17,03,02,7.90
2013,10,17,03,03,8.00
2013,10,17,03,04,8.10
2013,10,17,03,05,8.30
2013,10,17,03,06,8.40
2013,10,17,03,07,8.40
2013,10,17,03,08,8.50
2013,10,17,03,09,8.50
2013,10,17,03,10,8.50
2013,10,17,03,11,8.50
2013,10,17,03,12,8.50
2013,10,17,03,13,8.40
2013,10,17,03,14,8.30
2013,10,17,03,15,8.20
2013,10,17,03,16,8.10
2013,10,17,03,17,7.90
2013,10,17,03,18,7.80
2013,10,17,03,19,7.70
2013,10,17,03,20,7.60
2013,10,17,03,21,7.50
2013,10,17,03,22,7.40
2013,10,17,03,23,7.40
2013,10,17,03,24,7.40
2013,10,17,03,25,7.40
2013,10,17,03,26,7.40
2013,10,17,03,27,7.40
2013,10,17,03,28,7.40
2013,10,17,03,29,7.40
2013,10,17,03,30,7.40
2013,10,17,03,31,7.30
2013,10,17,03,32,7.30
2013,10,17,03,33,7.30
2013,10,17,03,34,7.30
2013,10,17,03,35,7.40
2013,10,17,03,36,7.50
2013,10,17,03,37,7.60
2013,10,17,03,38,7.70
2013,10,17,03,39,7.80
2013,10,17,03,40,7.80
2013,10,17,03,41,7.80
2013,10,17,03,42,7.80
2013,10,17,03,43,7.70
2013,10,17,03,44,7.60
2013,10,17,03,45,7.60
2013,10,17,03,46,7.50
2013,10,17,03,47,7.30
2013,10,17,03,48,7.10
2013,10,17,03,49,7.00
2013,10,17,03,50,6.80
2013,10,17,03,51,6.70
2013,10,17,03,52,6.60
2013,10,17,03,53,6.60
2013,10,17,03,54,6.60
2013,10,17,03,55,6.60
2013,10,17,03,56,6.60
2013,10,17,03,57,6.60
2013,10,17,03,58,6.60
2013,10,17,03,59,6.60
2013,10,17,04,00,6.50
2013,10,17,04,01,6.40
2013,10,17,04,02,6.40
2013,10,17,04,03,6.40
2013,10,17,04,04,6.30
2013,10,17,04,05,6.30
2013,10,17,04,06,6.20
2013,10,17,04,07,6.20
2013,10,17,04,08,6.20
2013,10,17,04,09,6.20
2013,10,17,04,10,6.20
2013,10,17,04,11,6.20
2013,10,17,04,12,6.10
2013,10,17,04,13,6.10
2013,10,17,04,14,6.20
2013,10,17,04,15,6.20
2013,10,17,04,16,6.20
2013,10,17,04,17,6.20
2013,10,17,04,18,6.20
2013,10,17,04,19,6.20
2013,10,17,04,20,6.20
2013,10,17,04,21,6.30
2013,10,17,04,22,6.30
2013,10,17,04,23,6.30
2013,10,17,04,24,6.20
2013,10,17,04,25,6.20
2013,10,17,04,26,6.10
2013,10,17,04,27,6.00
2013,10,17,04,28,5.90
2013,10,17,04,29,5.70
2013,10,17,04,30,5.70
2013,10,17,04,31,5.60
2013,10,17,04,32,5.50
2013,10,17,04,33,5.50
2013,10,17,04,34,5.50
2013,10,17,04,35,5.40
2013,10,17,04,36,5.40
2013,10,17,04,37,5.40
2013,10,17,04,38,5.40
2013,10,17,04,39,5.40
2013,10,17,04,40,5.50
2013,10,17,04,41,5.50
2013,10,17,04,42,5.50
2013,10,17,04,43,5.50
2013,10,17,04,44,5.50
2013,10,17,04,45,5.60
2013,10,17,04,46,5.60
2013,10,17,04,47,5.60
2013,10,17,04,48,5.60
2013,10,17,04,49,5.60
2013,10,17,04,50,5.50
2013,10,17,04,51,5.50
2013,10,17,04,52,5.60
2013,10,17,04,53,5.60
2013,10,17,04,54,5.60
2013,10,17,04,55,5.60
2013,10,17,04,56,5.60
2013,10,17,04,57,5.60
2013,10,17,04,58,5.60
2013,10,17,04,59,5.60
2013,10,17,05,00,5.60
2013,10,17,05,01,5.60
2013,10,17,05,02,5.60
2013,10,17,05,03,5.60
2013,10,17,05,04,5.60
2013,10,17,05,05,5.60
2013,10,17,05,06,5.60
2013,10,17,05,07,5.60
2013,10,17,05,08,5.70
2013,10,17,05,09,5.70
2013,10,17,05,10,5.70
2013,10,17,05,11,5.70
2013,10,17,05,12,5.70
2013,10,17,05,13,5.70
2013,10,17,05,14,5.70
2013,10,17,05,15,5.70
2013,10,17,05,16,5.70
2013,10,17,05,17,5.70
2013,10,17,05,18,5.70
2013,10,17,05,19,5.70
2013,10,17,05,20,5.70
2013,10,17,05,21,5.70
2013,10,17,05,22,5.80
2013,10,17,05,23,5.80
2013,10,17,05,24,5.90
2013,10,17,05,25,5.90
2013,10,17,05,26,6.00
2013,10,17,05,27,6.00
2013,10,17,05,28,6.00
2013,10,17,05,29,6.00
2013,10,17,05,30,6.10
2013,10,17,05,31,6.10
2013,10,17,05,32,6.10
2013,10,17,05,33,6.10
2013,10,17,05,34,6.10
2013,10,17,05,35,6.10
2013,10,17,05,36,6.00
2013,10,17,05,37,6.00
2013,10,17,05,38,6.00
2013,10,17,05,39,6.00
2013,10,17,05,40,6.00
2013,10,17,05,41,6.00
2013,10,17,05,42,6.00
2013,10,17,05,43,6.00
2013,10,17,05,44,6.00
2013,10,17,05,45,6.00
2013,10,17,05,46,6.00
2013,10,17,05,47,6.00
2013,10,17,05,48,6.00
2013,10,17,05,49,6.00
2013,10,17,05,50,6.00
2013,10,17,05,51,6.00
2013,10,17,05,52,6.00
2013,10,17,05,53,6.00
2013,10,17,05,54,5.90
2013,10,17,05,55,5.90
2013,10,17,05,56,5.90
2013,10,17,05,57,5.90
2013,10,17,05,58,5.90
2013,10,17,05,59,5.90
2013,10,17,06,00,5.90
2013,10,17,06,01,5.90
2013,10,17,06,02,5.80
2013,10,17,06,03,5.80
2013,10,17,06,04,5.80
2013,10,17,06,05,5.80
2013,10,17,06,06,5.80
2013,10,17,06,07,5.70
2013,10,17,06,08,5.70
2013,10,17,06,09,5.70
2013,10,17,06,10,5.70
2013,10,17,06,11,5.70
2013,10,17,06,12,5.70
2013,10,17,06,13,5.70
2013,10,17,06,14,5.70
2013,10,17,06,15,5.70
2013,10,17,06,16,5.70
2013,10,17,06,17,5.70
2013,10,17,06,18,5.70
2013,10,17,06,19,5.70
2013,10,17,06,20,5.70
2013,10,17,06,21,5.70
2013,10,17,06,22,5.70
2013,10,17,06,23,5.70
2013,10,17,06,24,5.70
2013,10,17,06,25,5.70
2013,10,17,06,26,5.70
2013,10,17,06,27,5.70
2013,10,17,06,28,5.70
2013,10,17,06,29,5.60
2013,10,17,06,30,5.60
2013,10,17,06,31,5.60
2013,10,17,06,32,5.60
2013,10,17,06,33,5.60
2013,10,17,06,34,5.60
2013,10,17,06,35,5.60
2013,10,17,06,36,5.60
2013,10,17,06,37,5.60
2013,10,17,06,38,5.70
2013,10,17,06,39,5.70
2013,10,17,06,40,5.70
2013,10,17,06,41,5.70
2013,10,17,06,42,5.70
2013,10,17,06,43,5.80
2013,10,17,06,44,5.80
2013,10,17,06,45,5.90
2013,10,17,06,46,5.90
2013,10,17,06,47,6.00
2013,10,17,06,48,6.00
2013,10,17,06,49,6.00
2013,10,17,06,50,6.10
2013,10,17,06,51,6.10
2013,10,17,06,52,6.20
2013,10,17,06,53,6.20
2013,10,17,06,54,6.30
2013,10,17,06,55,6.40
2013,10,17,06,56,6.40
2013,10,17,06,57,6.50
2013,10,17,06,58,6.60
2013,10,17,06,59,6.60
2013,10,17,07,00,6.60
2013,10,17,07,01,6.60
2013,10,17,07,02,6.60
2013,10,17,07,03,6.60
2013,10,17,07,04,6.60
2013,10,17,07,05,6.60
2013,10,17,07,06,6.60
2013,10,17,07,07,6.60
2013,10,17,07,08,6.60
2013,10,17,07,09,6.60
2013,10,17,07,10,6.60
2013,10,17,07,11,6.60
2013,10,17,07,12,6.70
2013,10,17,07,13,6.70
2013,10,17,07,14,6.70
2013,10,17,07,15,6.70
2013,10,17,07,16,6.70
2013,10,17,07,17,6.80
2013,10,17,07,18,6.80
2013,10,17,07,19,6.80
2013,10,17,07,20,6.80
2013,10,17,07,21,6.80
2013,10,17,07,22,6.80
2013,10,17,07,23,6.80
2013,10,17,07,24,6.90
2013,10,17,07,25,6.90
2013,10,17,07,26,6.90
2013,10,17,07,27,7.00
2013,10,17,07,28,7.00
2013,10,17,07,29,7.00
2013,10,17,07,30,7.00
2013,10,17,07,31,7.10
2013,10,17,07,32,7.10
2013,10,17,07,33,7.20
2013,10,17,07,34,7.30
2013,10,17,07,35,7.40
2013,10,17,07,36,7.50
2013,10,17,07,37,7.60
2013,10,17,07,38,7.70
2013,10,17,07,39,7.70
2013,10,17,07,40,7.80
2013,10,17,07,41,7.80
2013,10,17,07,42,7.90
2013,10,17,07,43,7.90
2013,10,17,07,44,7.90
2013,10,17,07,45,8.00
2013,10,17,07,46,8.00
2013,10,17,07,47,8.00
2013,10,17,07,48,8.00
2013,10,17,07,49,8.00
2013,10,17,07,50,8.00
2013,10,17,07,51,8.00
2013,10,17,07,52,8.00
2013,10,17,07,53,8.00
2013,10,17,07,54,8.00
2013,10,17,07,55,8.00
2013,10,17,07,56,8.00
2013,10,17,07,57,8.00
2013,10,17,07,58,8.10
2013,10,17,07,59,8.10
2013,10,17,08,00,8.10
2013,10,17,08,01,8.10
2013,10,17,08,02,8.10
2013,10,17,08,03,8.20
2013,10,17,08,04,8.20
2013,10,17,08,05,8.20
2013,10,17,08,06,8.20
2013,10,17,08,07,8.20
2013,10,17,08,08,8.20
2013,10,17,08,09,8.20
2013,10,17,08,10,8.20
2013,10,17,08,11,8.30
2013,10,17,08,12,8.30
2013,10,17,08,13,8.30
2013,10,17,08,14,8.40
2013,10,17,08,15,8.40
2013,10,17,08,16,8.40
2013,10,17,08,17,8.40
2013,10,17,08,18,8.40
2013,10,17,08,19,8.50
2013,10,17,08,20,8.50
2013,10,17,08,21,8.50
2013,10,17,08,22,8.50
2013,10,17,08,23,8.60
2013,10,17,08,24,8.60
2013,10,17,08,25,8.60
2013,10,17,08,26,8.60
2013,10,17,08,27,8.60
2013,10,17,08,28,8.60
2013,10,17,08,29,8.60
2013,10,17,08,30,8.60
2013,10,17,08,31,8.60
2013,10,17,08,32,8.70
2013,10,17,08,33,8.70
2013,10,17,08,34,8.70
2013,10,17,08,35,8.70
2013,10,17,08,36,8.70
2013,10,17,08,37,8.70
2013,10,17,08,38,8.70
2013,10,17,08,39,8.70
2013,10,17,08,40,8.70
2013,10,17,08,41,8.70
2013,10,17,08,42,8.70
2013,10,17,08,43,8.70
2013,10,17,08,44,8.70
2013,10,17,08,45,8.70
2013,10,17,08,46,8.70
2013,10,17,08,47,8.80
2013,10,17,08,48,8.80
2013,10,17,08,49,8.80
2013,10,17,08,50,8.80
2013,10,17,08,51,8.80
2013,10,17,08,52,8.80
2013,10,17,08,53,8.80
2013,10,17,08,54,8.80
2013,10,17,08,55,8.80
2013,10,17,08,56,8.80
2013,10,17,08,57,8.80
2013,10,17,08,58,8.80
2013,10,17,08,59,8.80
2013,10,17,09,00,8.90
2013,10,17,09,01,8.90
2013,10,17,09,02,8.90
2013,10,17,09,03,8.90
2013,10,17,09,04,8.90
2013,10,17,09,05,8.90
2013,10,17,09,06,8.90
2013,10,17,09,07,8.90
2013,10,17,09,08,8.90
2013,10,17,09,09,8.90
2013,10,17,09,10,8.90
2013,10,17,09,11,8.90
2013,10,17,09,12,8.90
2013,10,17,09,13,8.90
2013,10,17,09,14,8.90
2013,10,17,09,15,8.90
2013,10,17,09,16,8.90
2013,10,17,09,17,8.90
2013,10,17,09,18,8.90
2013,10,17,09,19,9.00
2013,10,17,09,20,9.00
2013,10,17,09,21,9.00
2013,10,17,09,22,9.00
2013,10,17,09,23,9.00
2013,10,17,09,24,9.00
2013,10,17,09,25,9.00
2013,10,17,09,26,8.90
2013,10,17,09,27,8.90
2013,10,17,09,28,8.90
2013,10,17,09,29,8.80
2013,10,17,09,30,8.80
2013,10,17,09,31,8.80
2013,10,17,09,32,8.80
2013,10,17,09,33,8.80
2013,10,17,09,34,8.80
2013,10,17,09,35,8.80
2013,10,17,09,36,8.70
2013,10,17,09,37,8.70
2013,10,17,09,38,8.70
2013,10,17,09,39,8.70
2013,10,17,09,40,8.70
2013,10,17,09,41,8.70
2013,10,17,09,42,8.70
2013,10,17,09,43,8.70
2013,10,17,09,44,8.70
2013,10,17,09,45,8.70
2013,10,17,09,46,8.70
2013,10,17,09,47,8.70
2013,10,17,09,48,8.70
2013,10,17,09,49,8.70
2013,10,17,09,50,8.70
2013,10,17,09,51,8.70
2013,10,17,09,52,8.70
2013,10,17,09,53,8.70
2013,10,17,09,54,8.70
2013,10,17,09,55,8.70
2013,10,17,09,56,8.70
2013,10,17,09,57,8.70
2013,10,17,09,58,8.70
2013,10,17,09,59,8.70
2013,10,17,10,00,8.70
2013,10,17,10,01,8.70
2013,10,17,10,02,8.70
2013,10,17,10,03,8.70
2013,10,17,10,04,8.70
2013,10,17,10,05,8.70
2013,10,17,10,06,8.70
2013,10,17,10,07,8.80
2013,10,17,10,08,8.80
2013,10,17,10,09,8.90
2013,10,17,10,10,8.90
2013,10,17,10,11,8.90
2013,10,17,10,12,8.90
2013,10,17,10,13,8.90
2013,10,17,10,14,8.90
2013,10,17,10,15,8.90
2013,10,17,10,16,8.90
2013,10,17,10,17,8.90
2013,10,17,10,18,8.90
2013,10,17,10,19,8.90
2013,10,17,10,20,8.90
2013,10,17,10,21,8.90
2013,10,17,10,22,8.90
2013,10,17,10,23,8.90
2013,10,17,10,24,8.90
2013,10,17,10,25,8.90
2013,10,17,10,26,8.90
2013,10,17,10,27,8.90
2013,10,17,10,28,8.90
2013,10,17,10,29,9.00
2013,10,17,10,30,9.00
2013,10,17,10,31,9.10
2013,10,17,10,32,9.10
2013,10,17,10,33,9.10
2013,10,17,10,34,9.20
2013,10,17,10,35,9.20
2013,10,17,10,36,9.20
2013,10,17,10,37,9.20
2013,10,17,10,38,9.20
2013,10,17,10,39,9.20
2013,10,17,10,40,9.20
2013,10,17,10,41,9.20
2013,10,17,10,42,9.20
2013,10,17,10,43,9.20
2013,10,17,10,44,9.20
2013,10,17,10,45,9.20
2013,10,17,10,46,9.20
2013,10,17,10,47,9.20
2013,10,17,10,48,9.20
2013,10,17,10,49,9.20
2013,10,17,10,50,9.20
2013,10,17,10,51,9.20
2013,10,17,10,52,9.20
2013,10,17,10,53,9.20
2013,10,17,10,54,9.20
2013,10,17,10,55,9.20
2013,10,17,10,56,9.30
2013,10,17,10,57,9.30
2013,10,17,10,58,9.40
2013,10,17,10,59,9.40
2013,10,17,11,00,9.50
2013,10,17,11,01,9.50
2013,10,17,11,02,9.50
2013,10,17,11,03,9.50
2013,10,17,11,04,9.50
2013,10,17,11,05,9.50
2013,10,17,11,06,9.50
2013,10,17,11,07,9.60
2013,10,17,11,08,9.50
2013,10,17,11,09,9.50
2013,10,17,11,10,9.50
2013,10,17,11,11,9.50
2013,10,17,11,12,9.50
2013,10,17,11,13,9.50
2013,10,17,11,14,9.40
2013,10,17,11,15,9.30
2013,10,17,11,16,9.30
2013,10,17,11,17,9.40
2013,10,17,11,18,9.50
2013,10,17,11,19,9.60
2013,10,17,11,20,9.60
2013,10,17,11,21,9.60
2013,10,17,11,22,9.60
2013,10,17,11,23,9.60
2013,10,17,11,24,9.60
2013,10,17,11,25,9.50
2013,10,17,11,26,9.50
2013,10,17,11,27,9.50
2013,10,17,11,28,9.60
2013,10,17,11,29,9.60
2013,10,17,11,30,9.60
2013,10,17,11,31,9.60
2013,10,17,11,32,9.60
2013,10,17,11,33,9.60
2013,10,17,11,34,9.60
2013,10,17,11,35,9.70
2013,10,17,11,36,9.70
2013,10,17,11,37,9.70
2013,10,17,11,38,9.70
2013,10,17,11,39,9.70
2013,10,17,11,40,9.70
2013,10,17,11,41,9.80
2013,10,17,11,42,9.80
2013,10,17,11,43,9.80
2013,10,17,11,44,9.80
2013,10,17,11,45,9.80
2013,10,17,11,46,9.80
2013,10,17,11,47,9.70
2013,10,17,11,48,9.80
2013,10,17,11,49,9.90
2013,10,17,11,50,9.90
2013,10,17,11,51,9.90
2013,10,17,11,52,9.90
2013,10,17,11,53,9.90
2013,10,17,11,54,9.90
2013,10,17,11,55,9.90
2013,10,17,11,56,9.90
2013,10,17,11,57,9.90
2013,10,17,11,58,9.90
2013,10,17,11,59,9.90
2013,10,17,12,00,9.90
2013,10,17,12,01,9.90
2013,10,17,12,02,9.90
2013,10,17,12,03,9.90
2013,10,17,12,04,9.90
2013,10,17,12,05,10.00
2013,10,17,12,06,10.10
2013,10,17,12,07,10.10
2013,10,17,12,08,10.10
2013,10,17,12,09,10.10
2013,10,17,12,10,10.20
2013,10,17,12,11,10.20
2013,10,17,12,12,10.30
2013,10,17,12,13,10.40
2013,10,17,12,14,10.40
2013,10,17,12,15,10.40
2013,10,17,12,16,10.60
2013,10,17,12,17,10.60
2013,10,17,12,18,10.60
2013,10,17,12,19,10.60
2013,10,17,12,20,10.60
2013,10,17,12,21,10.60
2013,10,17,12,22,10.70
2013,10,17,12,23,10.70
2013,10,17,12,24,10.70
2013,10,17,12,25,10.70
2013,10,17,12,26,10.80
2013,10,17,12,27,10.80
2013,10,17,12,28,10.80
2013,10,17,12,29,10.80
2013,10,17,12,30,10.90
2013,10,17,12,31,10.90
2013,10,17,12,32,11.10
2013,10,17,12,33,11.10
2013,10,17,12,34,11.20
2013,10,17,12,35,11.20
2013,10,17,12,36,11.10
2013,10,17,12,37,11.10
2013,10,17,12,38,11.10
2013,10,17,12,39,11.20
2013,10,17,12,40,11.20
2013,10,17,12,41,11.10
2013,10,17,12,42,11.20
2013,10,17,12,43,11.20
2013,10,17,12,44,11.20
2013,10,17,12,45,11.30
2013,10,17,12,46,11.40
2013,10,17,12,47,11.50
2013,10,17,12,48,11.60
2013,10,17,12,49,11.60
2013,10,17,12,50,11.70
2013,10,17,12,51,11.70
2013,10,17,12,52,11.70
2013,10,17,12,53,11.70
2013,10,17,12,54,11.80
2013,10,17,12,55,11.80
2013,10,17,12,56,11.80
2013,10,17,12,57,11.80
2013,10,17,12,58,11.90
2013,10,17,12,59,11.90
2013,10,17,13,00,12.00
2013,10,17,13,01,12.00
2013,10,17,13,02,12.00
2013,10,17,13,03,11.90
2013,10,17,13,04,12.00
2013,10,17,13,05,12.00
2013,10,17,13,06,12.00
2013,10,17,13,07,12.00
2013,10,17,13,08,12.00
2013,10,17,13,09,12.10
2013,10,17,13,10,12.00
2013,10,17,13,11,12.10
2013,10,17,13,12,12.20
2013,10,17,13,13,12.30
2013,10,17,13,14,12.30
2013,10,17,13,15,12.30
2013,10,17,13,16,12.30
2013,10,17,13,17,12.30
2013,10,17,13,18,12.40
2013,10,17,13,19,12.40
2013,10,17,13,20,12.30
2013,10,17,13,21,12.30
2013,10,17,13,22,12.30
2013,10,17,13,23,12.30
2013,10,17,13,24,12.30
2013,10,17,13,25,12.30
2013,10,17,13,26,12.40
2013,10,17,13,27,12.30
2013,10,17,13,28,12.30
2013,10,17,13,29,12.40
2013,10,17,13,30,12.40
2013,10,17,13,31,12.40
2013,10,17,13,32,12.50
2013,10,17,13,33,12.50
2013,10,17,13,34,12.60
2013,10,17,13,35,12.60
2013,10,17,13,36,12.60
2013,10,17,13,37,12.60
2013,10,17,13,38,12.70
2013,10,17,13,39,12.70
2013,10,17,13,40,12.80
2013,10,17,13,41,12.80
2013,10,17,13,42,12.80
2013,10,17,13,43,12.90
2013,10,17,13,44,12.90
2013,10,17,13,45,12.90
2013,10,17,13,46,12.90
2013,10,17,13,47,12.90
2013,10,17,13,48,13.00
2013,10,17,13,49,13.00
2013,10,17,13,50,13.10
2013,10,17,13,51,13.10
2013,10,17,13,52,13.20
2013,10,17,13,53,13.30
2013,10,17,13,54,13.30
2013,10,17,13,55,13.30
2013,10,17,13,56,13.30
2013,10,17,13,57,13.30
2013,10,17,13,58,13.20
2013,10,17,13,59,13.20
2013,10,17,14,00,13.10
2013,10,17,14,01,13.00
2013,10,17,14,02,13.00
2013,10,17,14,03,12.80
2013,10,17,14,04,12.80
2013,10,17,14,05,12.80
2013,10,17,14,06,12.80
2013,10,17,14,07,12.80
2013,10,17,14,08,12.80
2013,10,17,14,09,12.90
2013,10,17,14,10,12.90
2013,10,17,14,11,13.00
2013,10,17,14,12,13.00
2013,10,17,14,13,13.00
2013,10,17,14,14,13.00
2013,10,17,14,15,13.10
2013,10,17,14,16,13.10
2013,10,17,14,17,13.20
2013,10,17,14,18,13.10
2013,10,17,14,19,13.10
2013,10,17,14,20,13.10
2013,10,17,14,21,13.20
2013,10,17,14,22,13.20
2013,10,17,14,23,13.30
2013,10,17,14,24,13.30
2013,10,17,14,25,13.30
2013,10,17,14,26,13.30
2013,10,17,14,27,13.30
2013,10,17,14,28,13.30
2013,10,17,14,29,13.30
2013,10,17,14,30,13.30
2013,10,17,14,31,13.30
2013,10,17,14,32,13.30
2013,10,17,14,33,13.30
2013,10,17,14,34,13.30
2013,10,17,14,35,13.30
2013,10,17,14,36,13.30
2013,10,17,14,37,13.30
2013,10,17,14,38,13.30
2013,10,17,14,39,13.30
2013,10,17,14,40,13.30
2013,10,17,14,41,13.30
2013,10,17,14,42,13.30
2013,10,17,14,43,13.30
2013,10,17,14,44,13.30
2013,10,17,14,45,13.30
2013,10,17,14,46,13.30
2013,10,17,14,47,13.30
2013,10,17,14,48,13.30
2013,10,17,14,49,13.30
2013,10,17,14,50,13.20
2013,10,17,14,51,13.20
2013,10,17,14,52,13.10
2013,10,17,14,53,13.00
2013,10,17,14,54,13.00
2013,10,17,14,55,12.90
2013,10,17,14,56,12.90
2013,10,17,14,57,12.90
2013,10,17,14,58,12.90
2013,10,17,14,59,12.90
2013,10,17,15,00,12.80
2013,10,17,15,01,12.80
2013,10,17,15,02,12.90
2013,10,17,15,03,12.90
2013,10,17,15,04,13.00
2013,10,17,15,05,13.00
2013,10,17,15,06,13.10
2013,10,17,15,07,13.10
2013,10,17,15,08,13.10
2013,10,17,15,09,13.20
2013,10,17,15,10,13.30
2013,10,17,15,11,13.30
2013,10,17,15,12,13.30
2013,10,17,15,13,13.30
2013,10,17,15,14,13.30
2013,10,17,15,15,13.30
2013,10,17,15,16,13.30
2013,10,17,15,17,13.30
2013,10,17,15,18,13.30
2013,10,17,15,19,13.30
2013,10,17,15,20,13.30
2013,10,17,15,21,13.30
2013,10,17,15,22,13.30
2013,10,17,15,23,13.30
2013,10,17,15,24,13.30
2013,10,17,15,25,13.30
2013,10,17,15,26,13.30
2013,10,17,15,27,13.30
2013,10,17,15,28,13.30
2013,10,17,15,29,13.30
2013,10,17,15,30,13.40
2013,10,17,15,31,13.40
2013,10,17,15,32,13.40
2013,10,17,15,33,13.50
2013,10,17,15,34,13.50
2013,10,17,15,35,13.50
2013,10,17,15,36,13.60
2013,10,17,15,37,13.60
2013,10,17,15,38,13.60
2013,10,17,15,39,13.70
2013,10,17,15,40,13.70
2013,10,17,15,41,13.70
2013,10,17,15,42,13.70
2013,10,17,15,43,13.60
2013,10,17,15,44,13.60
2013,10,17,15,45,13.60
2013,10,17,15,46,13.50
2013,10,17,15,47,13.50
2013,10,17,15,48,13.50
2013,10,17,15,49,13.50
2013,10,17,15,50,13.50
2013,10,17,15,51,13.50
2013,10,17,15,52,13.50
2013,10,17,15,53,13.50
2013,10,17,15,54,13.50
2013,10,17,15,55,13.50
2013,10,17,15,56,13.50
2013,10,17,15,57,13.50
2013,10,17,15,58,13.50
2013,10,17,15,59,13.50
2013,10,17,16,00,13.50
2013,10,17,16,01,13.50
2013,10,17,16,02,13.50
2013,10,17,16,03,13.50
2013,10,17,16,04,13.50
2013,10,17,16,05,13.50
2013,10,17,16,06,13.50
2013,10,17,16,07,13.50
2013,10,17,16,08,13.50
2013,10,17,16,09,13.50
2013,10,17,16,10,13.50
2013,10,17,16,11,13.50
2013,10,17,16,12,13.50
2013,10,17,16,13,13.60
2013,10,17,16,14,13.60
2013,10,17,16,15,13.60
2013,10,17,16,16,13.50
2013,10,17,16,17,13.50
2013,10,17,16,18,13.50
2013,10,17,16,19,13.50
2013,10,17,16,20,13.50
2013,10,17,16,21,13.50
2013,10,17,16,22,13.50
2013,10,17,16,23,13.50
2013,10,17,16,24,13.50
2013,10,17,16,25,13.50
2013,10,17,16,26,13.40
2013,10,17,16,27,13.40
2013,10,17,16,28,13.40
2013,10,17,16,29,13.50
2013,10,17,16,30,13.50
2013,10,17,16,31,13.50
2013,10,17,16,32,13.50
2013,10,17,16,33,13.50
2013,10,17,16,34,13.50
2013,10,17,16,35,13.50
2013,10,17,16,36,13.50
2013,10,17,16,37,13.50
2013,10,17,16,38,13.50
2013,10,17,16,39,13.50
2013,10,17,16,40,13.50
2013,10,17,16,41,13.60
2013,10,17,16,42,13.60
2013,10,17,16,43,13.60
2013,10,17,16,44,13.60
2013,10,17,16,45,13.70
2013,10,17,16,46,13.70
2013,10,17,16,47,13.70
2013,10,17,16,48,13.70
2013,10,17,16,49,13.70
2013,10,17,16,50,13.70
2013,10,17,16,51,13.70
2013,10,17,16,52,13.70
2013,10,17,16,53,13.70
2013,10,17,16,54,13.70
2013,10,17,16,55,13.70
2013,10,17,16,56,13.70
2013,10,17,16,57,13.70
2013,10,17,16,58,13.70
2013,10,17,16,59,13.70
2013,10,17,17,00,13.70
2013,10,17,17,01,13.70
2013,10,17,17,02,13.70
2013,10,17,17,03,13.80
2013,10,17,17,04,13.80
2013,10,17,17,05,13.80
2013,10,17,17,06,13.90
2013,10,17,17,07,13.90
2013,10,17,17,08,13.90
2013,10,17,17,09,13.90
2013,10,17,17,10,13.90
2013,10,17,17,11,13.90
2013,10,17,17,12,13.80
2013,10,17,17,13,13.80
2013,10,17,17,14,13.80
2013,10,17,17,15,13.70
2013,10,17,17,16,13.70
2013,10,17,17,17,13.70
2013,10,17,17,18,13.70
2013,10,17,17,19,13.70
2013,10,17,17,20,13.70
2013,10,17,17,21,13.70
2013,10,17,17,22,13.70
2013,10,17,17,23,13.70
2013,10,17,17,24,13.70
2013,10,17,17,25,13.70
2013,10,17,17,26,13.70
2013,10,17,17,27,13.70
2013,10,17,17,28,13.60
2013,10,17,17,29,13.60
2013,10,17,17,30,13.60
2013,10,17,17,31,13.60
2013,10,17,17,32,13.50
2013,10,17,17,33,13.50
2013,10,17,17,34,13.40
2013,10,17,17,35,13.40
2013,10,17,17,36,13.40
2013,10,17,17,37,13.30
2013,10,17,17,38,13.30
2013,10,17,17,39,13.30
2013,10,17,17,40,13.30
2013,10,17,17,41,13.30
2013,10,17,17,42,13.30
2013,10,17,17,43,13.20
2013,10,17,17,44,13.20
2013,10,17,17,45,13.20
2013,10,17,17,46,13.20
2013,10,17,17,47,13.20
2013,10,17,17,48,13.20
2013,10,17,17,49,13.10
2013,10,17,17,50,13.10